Weather History for KMWM - November, 2011

Change the Weather History Date:

Tuesday, November 22, 2011

  Actual Average Record
Temperature  
Mean Temperature 37 °F -  
Max Temperature 41 °F 39 °F 64 °F (1974)
Min Temperature 33 °F 22 °F -2 °F (1964)
Degree Days  
Heating Degree Days 28    
Moisture  
Dew Point 34 °F    
Average Humidity 91    
Maximum Humidity 100    
Minimum Humidity 81    
Precipitation  
Precipitation 0.00 in - - ()
Sea Level Pressure  
Sea Level Pressure 30.05 in    
Wind  
Wind Speed 4 mph (SE)    
Max Wind Speed 8 mph    
Max Gust Speed -    
Visibility 7 miles    
Events      
Averages and records for this station are not official NWS values.
T = Trace of Precipitation, MM = Missing Value Source: NWS Daily Summary

Daily Weather History Graph

Daily Weather History Graph

Search for Another Location

Airport or City:

Trip Planner

Search our weather history database for the weather conditions in past years. The results will help you decide how hot, cold, wet, or windy it might be!

Date:

Astronomy

Nov. 22, 2011 Rise Set
Actual Time 7:23 AM CST 4:48 PM CST
Civil Twilight 6:52 AM CST 5:20 PM CST
Nautical Twilight 6:16 AM CST 5:55 PM CST
Astronomical Twilight 5:42 AM CST 6:30 PM CST
Moon 4:11 AM CST (11/22) 2:51 PM CST (11/22)
Length of Visible Light 10h 28m
Length of Day
9h 24m
Waning Crescent, 9% of the Moon is Illuminated
Nov 22
Waning Crescent
Nov 25
New
Dec 2
First Quarter
Dec 10
Full
Dec 17
Last Quarter

Hourly Weather History & Observations

Time (CST) Temp. Windchill Dew Point Humidity Pressure Visibility Wind Dir Wind Speed Gust Speed Precip Events Conditions
12:12 AM 33.8 °F 27.0 °F 33.8 °F 100% 30.13 in 5.0 mi SE 8.1 mph - N/A   Overcast
12:32 AM 33.8 °F 29.6 °F 33.8 °F 100% 30.12 in 7.0 mi SE 4.6 mph - N/A   Overcast
12:53 AM 33.8 °F 28.6 °F 33.8 °F 100% 30.12 in 7.0 mi SE 5.8 mph - N/A   Overcast
1:12 AM 33.8 °F 29.6 °F 33.8 °F 100% 30.12 in 7.0 mi SE 4.6 mph - N/A   Overcast
1:32 AM 33.8 °F 27.7 °F 32.0 °F 93% 30.12 in 7.0 mi SE 6.9 mph - N/A   Overcast
1:53 AM 35.6 °F 30.7 °F 33.8 °F 93% 30.12 in 7.0 mi SE 5.8 mph - N/A   Overcast
2:13 AM 35.6 °F 29.9 °F 32.0 °F 87% 30.12 in 10.0 mi SE 6.9 mph - N/A   Overcast
2:32 AM 35.6 °F 29.9 °F 32.0 °F 87% 30.11 in 10.0 mi SE 6.9 mph - N/A   Overcast
2:53 AM 33.8 °F 29.6 °F 32.0 °F 93% 30.11 in 10.0 mi ESE 4.6 mph - N/A   Overcast
3:12 AM 33.8 °F 29.6 °F 32.0 °F 93% 30.10 in 7.0 mi ESE 4.6 mph - N/A   Overcast
3:33 AM 33.8 °F - 32.0 °F 93% 30.09 in 7.0 mi Calm Calm - N/A   Overcast
3:53 AM 33.8 °F - 32.0 °F 93% 30.09 in 7.0 mi Calm Calm - N/A   Overcast
4:33 AM 33.8 °F 30.8 °F 32.0 °F 93% 30.07 in 7.0 mi East 3.5 mph - N/A   Overcast
4:52 AM 33.8 °F 30.8 °F 32.0 °F 93% 30.06 in 7.0 mi East 3.5 mph - N/A   Overcast
5:12 AM 33.8 °F - 32.0 °F 93% 30.06 in 7.0 mi Calm Calm - N/A   Overcast
5:52 AM 33.8 °F - 32.0 °F 93% 30.06 in 7.0 mi Calm Calm - N/A   Overcast
6:12 AM 33.8 °F - 32.0 °F 93% 30.06 in 7.0 mi Calm Calm - N/A   Overcast
6:33 AM 33.8 °F 29.6 °F 32.0 °F 93% 30.06 in 7.0 mi East 4.6 mph - N/A   Overcast
6:52 AM 33.8 °F 27.7 °F 32.0 °F 93% 30.05 in 5.0 mi East 6.9 mph - N/A   Overcast
7:12 AM 33.8 °F 28.6 °F 32.0 °F 93% 30.05 in 7.0 mi ESE 5.8 mph - N/A   Overcast
7:33 AM 33.8 °F 27.7 °F 32.0 °F 93% 30.05 in 7.0 mi ESE 6.9 mph - N/A   Overcast
7:52 AM 33.8 °F 28.6 °F 32.0 °F 93% 30.05 in 7.0 mi SE 5.8 mph - N/A   Overcast
8:12 AM 33.8 °F 29.6 °F 32.0 °F 93% 30.06 in 7.0 mi SE 4.6 mph - N/A   Overcast
8:33 AM 33.8 °F 29.6 °F 32.0 °F 93% 30.05 in 5.0 mi SE 4.6 mph - N/A   Overcast
8:52 AM 33.8 °F 28.6 °F 32.0 °F 93% 30.05 in 7.0 mi SE 5.8 mph - N/A   Overcast
9:12 AM 33.8 °F 28.6 °F 32.0 °F 93% 30.05 in 7.0 mi SSE 5.8 mph - N/A   Overcast
9:33 AM 35.6 °F - 32.0 °F 87% 30.06 in 7.0 mi Calm Calm - N/A   Overcast
9:52 AM 35.6 °F 32.8 °F 32.0 °F 87% 30.06 in 7.0 mi SSE 3.5 mph - N/A   Overcast
10:12 AM 35.6 °F 32.8 °F 33.8 °F 93% 30.06 in 7.0 mi SSE 3.5 mph - N/A   Overcast
10:33 AM 35.6 °F 31.7 °F 33.8 °F 93% 30.05 in 7.0 mi SSE 4.6 mph - N/A   Overcast
10:52 AM 37.4 °F 33.8 °F 33.8 °F 87% 30.05 in 7.0 mi SE 4.6 mph - N/A   Overcast
11:12 AM 37.4 °F 34.9 °F 33.8 °F 87% 30.05 in 7.0 mi SSW 3.5 mph - N/A   Overcast
11:33 AM 37.4 °F 33.8 °F 33.8 °F 87% 30.04 in 7.0 mi SE 4.6 mph - N/A   Overcast
12:13 PM 37.4 °F - 33.8 °F 87% 30.02 in 5.0 mi Calm Calm - N/A   Overcast
12:32 PM 37.4 °F - 35.6 °F 93% 30.02 in 5.0 mi Calm Calm - N/A   Overcast
12:53 PM 37.4 °F - 35.6 °F 93% 30.02 in 5.0 mi Calm Calm - N/A   Overcast
1:12 PM 37.4 °F - 35.6 °F 93% 30.00 in 5.0 mi Calm Calm - N/A   Overcast
1:32 PM 39.2 °F - 35.6 °F 87% 30.00 in 5.0 mi Calm Calm - N/A   Overcast
1:52 PM 39.2 °F - 35.6 °F 87% 29.99 in 4.0 mi Calm Calm - N/A   Overcast
2:13 PM 39.2 °F 37.0 °F 35.6 °F 87% 29.99 in 5.0 mi South 3.5 mph - N/A   Overcast
2:32 PM 39.2 °F - 35.6 °F 87% 29.99 in 5.0 mi Calm Calm - N/A   Overcast
2:52 PM 39.2 °F 37.0 °F 35.6 °F 87% 29.99 in 5.0 mi South 3.5 mph - N/A   Overcast
3:13 PM 39.2 °F - 35.6 °F 87% 30.00 in 7.0 mi Calm Calm - N/A   Overcast
3:32 PM 39.2 °F - 35.6 °F 87% 30.00 in 7.0 mi Calm Calm - N/A   Overcast
4:13 PM 41.0 °F - 35.6 °F 81% 30.01 in 7.0 mi Calm Calm - N/A   Overcast
4:32 PM 39.2 °F - 35.6 °F 87% 30.02 in 7.0 mi Calm Calm - N/A   Overcast
4:52 PM 39.2 °F - 35.6 °F 87% 30.01 in 7.0 mi Calm Calm - N/A   Overcast
5:12 PM 39.2 °F - 35.6 °F 87% 30.02 in 7.0 mi Calm Calm - N/A   Overcast
5:53 PM 39.2 °F - 35.6 °F 87% 30.03 in 7.0 mi Calm Calm - N/A   Overcast
6:12 PM 39.2 °F - 35.6 °F 87% 30.03 in 7.0 mi Calm Calm - N/A   Overcast
7:12 PM 39.2 °F - 35.6 °F 87% 30.04 in 7.0 mi Calm Calm - N/A   Overcast
7:32 PM 37.4 °F - 35.6 °F 93% 30.04 in 7.0 mi Calm Calm - N/A   Overcast
7:52 PM 37.4 °F - 35.6 °F 93% 30.04 in 7.0 mi Calm Calm - N/A   Overcast
8:12 PM 37.4 °F 34.9 °F 33.8 °F 87% 30.04 in 7.0 mi South 3.5 mph - N/A   Overcast
8:33 PM 35.6 °F 31.7 °F 33.8 °F 93% 30.05 in 10.0 mi SSW 4.6 mph - N/A   Overcast
8:52 PM 35.6 °F - 33.8 °F 93% 30.04 in 10.0 mi Calm Calm - N/A   Mostly Cloudy
9:12 PM 35.6 °F 32.8 °F 33.8 °F 93% 30.05 in 10.0 mi South 3.5 mph - N/A   Mostly Cloudy
9:33 PM 35.6 °F 31.7 °F 33.8 °F 93% 30.06 in 10.0 mi SSW 4.6 mph - N/A   Overcast
10:12 PM 35.6 °F 31.7 °F 33.8 °F 93% 30.06 in 10.0 mi SSW 4.6 mph - N/A   Overcast
10:33 PM 35.6 °F 30.7 °F 33.8 °F 93% 30.07 in 10.0 mi SSW 5.8 mph - N/A   Scattered Clouds
10:52 PM 33.8 °F 29.6 °F 33.8 °F 100% 30.07 in 7.0 mi SSW 4.6 mph - N/A   Clear
11:12 PM 33.8 °F 29.6 °F 32.0 °F 93% 30.07 in 7.0 mi South 4.6 mph - N/A   Clear
11:33 PM 33.8 °F 30.8 °F 32.0 °F 93% 30.07 in 7.0 mi South 3.5 mph - N/A   Clear
11:52 PM 32.0 °F 27.5 °F 32.0 °F 100% 30.08 in 5.0 mi SSW 4.6 mph - N/A   Clear